Wind_Speed
13 13 13 13 13 13 13 13 13 13 13 13 13 14 13 14 13 13 13 13 13 13 13 13 13 14 14 14 15 15 15 15 15 15 16 17 17 17 18 18 18 18 18 18 18 18 18 18 18 18 19 19 19 19 20 20 19 20 22 23 23 23 22 20 20 20 21 22 21 21 21 23 23 22 23 24 23 22 20 16 14 18 17 15 17 18 18 17
15 15 15 15 15 14 14 14 14 14 14 14 15 15 15 15 15 15 15 15 15 15 15 15 15 15 15 16 16 16 16 16 15 14 15 16 17 17 17 17 17 18 18 18 19 19 18 18 18 19 19 19 19 19 20 20 19 21 23 26 26 24 23 22 21 21 22 22 23 23 22 24 23 23 25 25 25 24 22 16 14 18 17 16 18 20 21 19
17 17 16 16 16 16 16 16 16 16 16 16 16 16 16 16 16 16 16 16 16 16 17 17 17 17 17 18 18 19 19 18 16 16 17 17 17 16 15 15 15 16 17 17 17 18 18 18 18 19 19 19 20 19 20 20 21 23 24 28 27 24 25 24 21 21 21 22 24 24 24 25 24 24 26 27 27 26 23 16 15 20 18 16 18 21 24 22
18 17 17 17 17 17 17 17 17 17 17 17 17 17 17 17 18 17 17 17 17 17 17 18 18 19 19 19 20 21 22 21 18 17 18 17 16 16 15 15 15 16 17 18 17 17 18 18 19 19 19 20 21 21 21 21 21 25 26 28 27 25 27 25 21 22 22 23 24 24 25 26 25 25 27 28 29 28 22 17 17 20 20 19 20 22 25 25
18 18 18 18 18 18 18 18 18 18 18 19 18 19 18 19 19 19 19 18 19 19 18 19 19 20 20 20 21 22 22 19 14 14 17 18 18 18 19 19 19 19 20 20 20 20 20 20 20 21 21 22 22 22 23 22 22 27 29 28 27 26 28 27 24 24 24 24 24 24 25 27 27 27 27 29 32 28 22 19 19 21 23 23 23 24 25 25
19 19 19 19 19 19 19 19 20 20 20 20 20 20 20 20 20 20 20 20 20 20 20 20 20 21 21 22 22 23 23 16 12 17 21 21 21 21 21 21 21 21 21 21 21 21 22 22 22 21 22 23 24 24 24 23 24 28 30 28 27 27 29 28 27 27 27 27 26 26 28 28 29 29 30 33 34 28 23 21 21 23 25 26 26 26 26 26
21 21 20 20 20 20 21 21 21 21 21 21 21 21 21 21 21 21 21 21 21 21 21 21 21 22 22 23 23 24 26 18 14 21 23 21 21 21 21 21 21 21 21 20 20 21 21 22 22 22 23 24 25 25 25 25 26 29 31 30 28 29 30 29 30 31 30 31 30 30 31 29 30 30 33 37 34 28 25 23 23 24 25 27 28 27 26 26
22 22 22 21 21 21 22 22 22 22 22 22 22 22 22 22 22 22 22 22 22 22 22 21 22 22 22 23 24 26 26 18 16 20 20 20 20 19 20 20 20 21 21 21 21 21 22 22 22 23 24 25 26 27 27 27 29 32 32 31 31 32 31 31 33 34 34 34 33 33 33 30 30 33 36 38 33 28 26 24 23 24 26 28 28 27 26 27
24 23 23 23 23 23 23 23 23 23 23 23 23 23 23 23 23 23 23 23 23 23 23 23 23 22 22 22 24 27 22 14 15 16 16 18 18 18 19 20 22 22 22 23 23 23 24 24 24 25 26 27 28 29 29 29 32 33 32 33 34 35 33 33 35 36 35 35 35 36 35 32 31 34 37 34 29 26 26 25 24 25 27 28 28 27 27 28
25 25 25 24 24 24 24 24 24 24 24 24 24 24 24 24 24 24 24 24 24 24 24 24 24 23 23 22 25 27 19 14 17 16 16 18 19 20 21 22 23 23 24 24 25 25 25 25 26 26 27 28 29 29 30 31 33 34 34 36 36 36 36 36 36 37 37 36 36 38 36 32 31 34 35 30 29 27 26 26 25 25 26 26 27 27 27 28
25 25 25 25 25 25 25 25 25 25 25 25 25 24 24 24 25 25 25 25 25 25 25 25 26 25 25 24 26 26 20 19 22 20 20 20 21 22 23 24 24 24 25 25 26 26 27 27 28 28 28 29 29 29 31 32 34 34 35 37 37 37 37 37 37 36 37 36 35 36 36 33 32 35 34 29 30 30 28 27 24 25 26 26 27 27 28 29
26 26 26 25 25 25 25 25 26 26 26 26 26 26 26 26 26 26 26 27 26 26 26 26 26 26 26 26 25 25 24 25 25 24 23 23 23 23 24 25 26 26 27 27 27 27 28 28 29 29 28 30 30 30 31 32 34 35 35 38 38 39 38 37 35 33 33 34 34 35 35 35 35 34 31 29 30 31 31 30 27 26 27 27 27 27 28 29
28 28 27 27 27 27 27 27 28 28 28 28 28 28 28 28 29 29 29 28 28 28 28 28 28 28 29 28 26 26 26 27 27 26 25 25 25 25 25 27 28 29 30 29 29 29 29 30 30 30 30 30 29 29 31 33 35 34 35 39 38 38 38 34 31 29 30 33 35 33 32 36 37 33 31 31 32 33 33 32 30 29 29 29 29 28 29 29
29 29 29 29 29 29 29 29 29 30 30 30 30 30 30 30 30 29 29 29 29 28 28 28 28 28 29 29 27 27 28 28 29 28 27 27 26 26 26 27 28 29 30 30 30 30 31 31 30 29 28 27 27 27 31 34 34 32 34 37 36 38 38 32 28 29 32 35 37 36 34 39 41 35 31 33 33 34 35 34 33 32 32 32 32 31 31 30
28 29 29 29 29 29 29 29 29 30 30 30 30 29 29 29 29 29 29 29 28 28 28 28 28 28 30 28 27 27 27 27 28 27 27 26 26 26 26 26 27 27 28 28 29 29 30 30 30 29 27 27 27 28 32 34 32 32 33 36 37 39 39 35 31 31 34 39 41 39 35 38 42 37 32 33 36 37 37 36 35 35 36 36 35 34 33 31
27 27 27 27 27 27 27 27 27 28 28 28 28 28 28 28 29 29 28 28 28 28 28 28 28 28 29 28 26 27 27 27 27 26 26 26 27 27 26 26 25 25 26 27 28 28 29 30 30 30 28 27 27 30 32 31 32 33 33 36 37 37 39 40 37 33 34 40 43 42 39 40 44 41 36 35 37 39 40 39 36 36 37 37 37 36 36 35
26 26 26 26 25 26 26 26 26 27 28 28 28 29 28 28 29 28 29 28 28 28 28 28 29 29 30 28 26 25 25 25 25 24 24 24 24 24 24 24 23 25 26 27 28 29 29 30 30 29 27 26 26 29 28 25 30 34 33 36 36 36 39 40 41 37 35 41 44 46 50 51 49 45 40 37 37 40 41 40 39 38 38 38 37 38 38 37
26 26 25 25 26 26 26 27 26 27 28 28 28 28 29 29 29 29 29 29 29 29 29 28 28 26 24 20 19 20 22 23 23 24 25 26 27 27 28 29 30 31 31 30 31 31 30 30 30 29 27 28 29 30 30 26 31 35 33 34 35 38 41 42 43 39 37 42 45 48 52 53 51 47 44 40 38 40 42 42 42 41 39 39 38 38 37 36
26 26 26 26 26 26 27 27 27 27 27 28 28 28 29 29 29 29 29 29 29 28 27 27 27 26 23 21 22 24 25 25 26 27 27 29 30 32 33 34 34 34 32 32 33 31 30 31 31 30 30 31 31 31 33 33 34 35 34 36 38 42 44 42 40 38 37 43 47 48 51 52 51 49 47 44 41 41 41 40 40 40 39 38 36 34 31 30
27 27 27 27 27 27 27 27 27 27 27 27 28 28 29 29 29 30 29 29 28 28 28 28 30 31 30 29 28 28 27 27 27 27 28 29 31 32 34 35 35 35 34 34 33 32 32 33 34 33 32 32 31 30 31 32 33 35 36 39 41 43 44 41 40 38 39 46 50 48 50 51 49 47 46 44 40 39 39 39 37 35 32 30 27 25 25 24
29 29 28 27 27 27 27 27 27 27 26 26 26 27 28 29 29 31 32 31 28 29 30 30 31 33 32 31 30 29 29 29 28 27 28 29 30 32 35 35 35 35 34 32 31 31 32 33 35 33 31 30 29 29 30 32 33 34 36 39 40 42 44 45 42 37 36 43 48 47 49 50 48 49 47 42 39 36 32 27 23 22 23 24 24 24 24 24
29 28 27 27 27 26 26 25 25 25 25 25 25 26 27 27 29 31 33 34 31 29 30 30 31 31 29 29 30 28 30 31 29 29 29 30 32 33 36 36 36 35 33 31 30 31 33 35 34 30 27 26 27 27 27 30 31 33 35 38 40 41 44 45 39 34 33 38 45 45 48 52 49 44 39 33 26 17 11 13 19 25 27 25 24 23 20 18
25 25 25 25 24 24 24 24 24 24 24 23 24 24 25 26 27 28 30 34 32 27 27 28 27 26 24 25 26 26 29 30 28 29 29 31 33 33 35 37 37 36 35 34 33 34 34 34 32 28 26 28 29 29 29 31 34 36 37 38 41 40 39 40 36 32 30 35 41 42 47 49 36 22 16 8 2 3 9 26 32 28 23 19 17 15 13 11
20 20 20 20 20 20 21 21 20 20 20 20 21 22 23 23 24 26 27 32 33 26 24 25 23 19 16 16 17 17 20 20 22 24 25 29 31 32 33 35 36 37 37 35 34 35 35 34 33 31 30 30 31 31 30 32 36 37 35 34 36 33 30 33 34 32 32 33 34 37 41 31 8 7 4 6 4 11 27 32 22 13 12 11 11 10 8 9
17 17 17 16 17 17 18 18 18 18 18 18 20 21 22 23 24 26 27 30 31 26 19 17 15 8 2 2 3 3 6 7 9 11 13 19 22 25 29 30 32 35 34 33 32 34 34 31 30 29 26 25 26 26 23 25 32 34 30 26 27 26 26 28 29 30 28 22 23 29 27 11 5 4 12 14 20 28 26 16 5 4 6 6 9 9 7 7
17 17 17 16 16 17 17 17 17 17 17 18 19 20 21 22 22 24 26 27 26 20 10 5 4 5 4 3 3 2 5 4 3 5 7 11 13 16 20 21 23 26 26 26 27 29 27 24 22 21 19 17 18 19 18 18 26 30 26 22 22 24 25 26 27 27 20 14 22 26 16 14 18 17 23 30 26 20 14 6 2 2 4 7 8 6 4 5
18 19 18 18 19 19 19 18 18 19 19 19 20 19 19 18 19 22 23 18 13 9 1 8 7 5 4 5 4 5 9 8 7 10 11 12 12 12 15 14 15 16 18 18 20 22 21 19 18 17 17 17 18 19 18 16 22 29 26 23 22 22 24 26 26 25 24 26 28 20 9 19 26 19 21 24 15 11 7 8 10 9 2 1 1 3 2 3
20 20 20 21 21 20 20 19 19 20 21 22 22 22 21 20 22 22 17 8 4 2 5 9 4 2 5 7 9 12 14 12 10 9 10 11 12 13 14 15 15 16 18 18 20 22 21 21 22 20 20 22 23 22 18 16 22 27 25 22 21 22 24 27 27 26 28 28 17 5 2 12 21 17 16 12 7 6 8 15 16 14 8 6 4 3 2 3
20 21 21 21 21 21 20 19 19 20 21 23 23 24 23 22 23 19 10 5 4 2 4 8 7 7 8 11 14 14 12 11 10 10 12 13 14 15 16 16 17 19 19 20 23 23 22 23 23 22 24 25 22 18 16 17 21 23 23 24 23 25 27 26 27 27 25 20 11 9 8 10 16 13 6 4 3 6 13 16 12 14 8 2 0 4 6 7
22 22 22 22 21 19 19 19 20 21 22 23 23 23 22 21 19 12 7 7 6 6 8 10 11 12 13 13 12 11 11 11 12 14 16 15 15 15 14 16 17 19 20 21 24 23 23 25 25 25 24 21 18 17 18 18 20 22 24 26 26 26 26 24 23 20 15 11 10 12 12 11 10 5 5 5 6 11 12 11 4 11 12 4 3 6 9 11
24 23 23 23 22 21 20 20 21 21 22 22 21 22 20 19 16 9 7 9 10 11 13 12 9 9 9 10 10 10 10 10 11 13 14 14 14 13 13 15 16 18 21 23 25 26 27 28 28 28 24 22 23 23 22 22 23 24 25 26 22 18 15 12 10 6 6 6 4 5 6 11 13 3 6 7 9 9 4 4 10 13 12 8 9 13 16 18
25 24 24 24 23 22 22 21 22 22 22 21 20 20 19 17 16 16 14 14 10 7 8 7 6 7 7 9 10 9 9 10 12 14 16 17 17 17 17 18 19 20 20 23 27 31 35 35 33 32 31 31 30 27 26 26 25 24 24 22 13 6 6 5 2 1 6 9 8 9 6 11 22 20 13 11 11 17 21 20 19 16 12 13 18 21 22 26
26 25 25 26 25 23 22 22 23 23 23 21 20 21 18 13 12 16 17 15 9 6 7 8 8 9 12 14 15 15 18 20 22 22 23 24 25 26 25 26 28 28 26 27 31 31 32 34 34 32 31 31 29 27 26 23 20 18 20 18 9 3 3 4 3 2 7 10 12 14 10 12 22 21 16 16 20 26 26 16 11 10 13 20 28 27 26 26
28 28 27 28 28 26 24 23 24 26 25 23 23 22 19 17 17 18 19 19 18 17 20 21 21 23 25 25 25 26 26 25 25 26 27 28 30 31 31 30 30 31 32 32 32 27 21 24 30 27 24 26 26 23 21 20 19 21 24 21 18 15 10 6 4 4 8 12 11 9 6 9 13 8 5 6 6 13 13 12 14 18 22 27 27 24 21 20
30 30 29 30 29 27 27 26 26 27 27 27 26 24 25 28 27 27 27 27 26 26 27 27 27 28 29 30 30 29 26 21 20 21 23 24 26 27 27 27 25 25 26 25 23 23 21 25 32 27 23 26 27 23 21 21 22 24 24 21 22 25 23 17 15 17 17 13 10 12 13 21 29 27 24 21 17 21 25 27 29 25 22 19 16 15 16 18
32 32 32 32 30 29 29 30 30 29 30 30 29 31 37 38 33 30 29 26 23 22 22 22 23 25 26 26 25 22 19 17 16 16 18 20 22 24 25 25 24 23 24 24 23 21 20 25 30 26 21 20 20 20 22 23 22 19 18 22 25 26 26 22 17 19 17 9 10 17 21 31 39 38 34 23 18 25 26 21 19 15 14 15 16 19 21 22
34 35 35 34 32 31 32 32 32 32 32 31 32 38 44 43 40 38 36 33 29 25 22 20 20 20 18 16 15 13 12 13 13 13 17 18 16 16 18 19 20 22 24 27 28 25 23 27 32 31 27 22 21 23 25 27 28 24 22 25 25 20 21 20 9 4 8 7 10 18 25 28 23 20 20 7 10 13 16 16 17 17 18 19 19 22 23 24
38 38 38 36 33 33 33 32 31 32 32 31 35 41 43 42 42 40 38 37 35 31 27 24 22 21 20 19 20 19 17 15 12 13 16 17 15 15 17 18 18 21 23 25 27 27 25 26 29 32 32 27 26 28 26 26 27 27 27 25 20 13 12 13 8 3 6 7 4 11 22 26 25 26 25 17 17 20 20 22 23 20 19 20 21 22 23 23
40 40 39 38 34 32 32 31 30 30 31 34 39 42 43 44 43 40 39 36 33 31 30 29 27 25 26 26 25 23 20 17 15 15 15 14 13 12 12 13 12 13 15 16 19 22 22 19 19 25 30 26 24 27 27 26 25 26 28 26 23 20 15 13 12 8 7 8 8 9 12 16 25 32 28 24 25 24 20 20 21 21 22 24 26 27 27 27
39 38 38 37 33 29 29 29 28 30 33 38 42 42 42 43 41 40 39 36 33 32 30 30 29 27 27 28 28 26 25 24 23 22 20 18 19 18 16 16 17 18 18 18 21 24 24 22 20 24 30 27 23 25 26 22 19 18 22 23 22 23 22 19 18 19 16 9 6 7 7 12 25 32 31 31 30 28 27 27 25 24 22 21 22 23 25 27
35 35 35 34 30 27 26 27 30 33 35 37 39 40 40 40 38 38 38 35 33 31 30 30 28 27 27 28 28 26 25 26 26 24 25 25 24 22 21 21 23 24 24 25 27 27 26 25 24 25 31 32 28 27 25 20 18 18 20 22 22 23 23 18 16 23 27 18 11 10 9 14 26 34 36 37 34 31 32 28 23 20 18 18 21 23 26 29
31 31 31 30 28 26 25 28 30 32 34 35 37 36 35 35 35 35 36 36 33 31 31 31 30 29 29 29 28 28 28 29 29 27 28 28 26 24 25 27 27 27 28 30 31 32 31 30 30 30 34 38 38 37 34 30 30 29 27 27 27 27 29 24 15 16 23 23 21 18 12 14 26 36 39 37 32 26 22 21 21 22 25 29 32 33 34 35
28 28 28 27 26 25 25 27 29 31 34 35 34 33 32 33 34 34 35 34 32 30 30 30 30 29 29 29 29 29 30 30 30 31 29 28 28 28 27 28 28 28 30 30 29 30 31 30 29 30 32 37 40 40 40 35 31 28 26 27 28 28 32 33 27 23 20 18 20 17 9 12 23 32 32 27 22 20 17 20 27 32 36 39 40 41 43 43
27 27 27 27 26 26 28 30 31 33 34 33 32 31 31 32 33 34 35 33 30 29 28 28 28 27 26 27 27 28 28 24 23 24 24 23 24 24 24 25 26 27 27 26 22 20 19 19 18 16 14 17 21 23 22 20 18 17 17 18 22 26 30 32 31 26 15 13 20 16 7 11 19 22 22 20 22 27 29 34 39 43 45 47 48 50 51 50
24 25 25 25 25 27 30 32 32 32 31 30 31 31 31 32 33 33 34 33 31 30 28 27 27 26 26 27 27 28 27 25 23 24 26 26 25 24 25 24 24 24 23 23 22 21 20 20 19 14 8 7 9 11 13 14 15 16 18 20 21 22 26 28 27 21 12 12 19 16 12 18 23 23 26 32 38 43 44 47 50 51 52 53 53 53 52 51
22 23 24 24 24 26 29 29 29 30 29 29 29 30 30 32 32 31 30 31 30 29 28 28 28 28 28 28 28 29 30 30 29 29 31 31 28 26 25 24 24 24 25 27 29 28 27 27 28 27 23 22 24 26 28 28 27 27 31 35 35 33 36 36 28 20 20 22 24 28 33 36 37 39 43 46 49 50 51 52 53 54 54 53 51 50 50 49
22 23 24 23 23 24 28 29 29 29 29 28 29 31 32 31 30 30 28 28 29 28 27 27 27 27 28 28 27 28 29 30 28 30 32 32 31 29 29 30 31 31 32 33 33 31 29 29 33 33 31 33 35 34 32 31 30 31 35 41 43 42 42 40 31 29 30 25 22 32 40 40 41 47 50 50 51 52 52 53 52 52 51 50 49 49 47 46
23 23 23 24 23 23 25 26 27 28 29 29 29 30 30 30 29 28 27 26 26 26 25 24 24 25 25 25 25 24 24 24 24 26 27 27 27 27 27 30 31 32 33 33 33 32 29 31 35 33 29 32 35 33 32 32 31 31 33 37 40 42 42 40 38 40 40 30 29 39 47 48 51 52 51 52 53 51 51 50 48 47 46 46 46 46 45 44
24 24 23 24 26 26 26 26 25 26 27 28 29 29 28 29 28 25 23 23 23 23 23 22 22 23 23 22 22 23 23 23 22 23 24 26 27 28 30 32 33 34 35 34 33 29 26 29 29 25 25 29 32 33 32 29 29 31 33 35 38 42 44 42 42 44 43 40 43 50 53 54 55 52 50 49 47 46 45 44 42 41 41 42 42 43 44 44
25 25 24 24 26 26 27 27 27 27 27 28 30 31 30 30 29 25 24 24 24 23 22 22 23 23 22 21 22 24 25 24 24 24 26 28 31 33 34 34 34 34 33 33 30 24 22 25 23 19 21 25 29 32 30 28 31 35 36 38 42 46 47 48 49 50 49 49 51 50 47 47 49 47 43 40 38 39 38 37 37 37 37 38 39 40 41 42
25 25 25 25 26 26 27 28 28 29 29 30 32 32 31 32 32 31 30 30 30 30 29 29 30 29 29 29 31 32 32 31 31 33 34 36 37 38 35 32 31 30 28 27 24 21 21 24 25 23 22 27 33 32 31 35 38 40 45 49 51 50 48 49 50 49 49 49 50 45 39 37 38 38 35 33 33 33 33 33 33 33 34 36 37 39 40 42
25 25 25 26 26 27 28 28 28 30 31 31 30 31 32 32 33 33 34 33 33 34 34 34 35 35 35 35 36 36 36 35 36 36 36 36 35 32 29 27 26 26 27 25 23 23 23 24 29 27 23 30 37 34 34 34 26 30 47 53 48 45 43 41 41 43 44 43 43 41 37 34 32 31 29 28 28 29 30 31 31 32 34 35 36 38 39 41
Wind_Direction
273 274 275 277 278 279 281 282 284 285 285 286 287 287 287 287 287 287 287 288 289 291 292 293 294 295 295 295 295 294 292 291 292 292 293 291 291 290 290 290 290 291 292 293 294 293 294 293 293 294 294 294 293 293 292 292 293 291 290 289 287 291 296 300 301 298 297 299 298 296 297 295 296 296 293 292 291 291 290 293 295 291 295 297 293 291 291 293
272 273 275 276 277 278 279 280 281 282 282 283 284 284 284 285 285 285 286 287 288 289 290 291 292 292 293 294 293 293 292 292 294 296 294 294 293 291 290 290 291 291 291 291 291 291 290 290 291 291 291 292 290 290 289 289 289 287 287 285 285 293 297 298 299 300 299 297 295 295 294 292 294 295 292 290 290 290 290 298 297 288 289 291 291 289 287 290
269 270 272 274 276 277 278 279 279 279 280 280 281 281 282 283 284 284 285 286 287 288 289 289 289 289 290 289 289 289 288 289 293 295 294 293 291 290 289 290 292 294 294 292 290 290 289 289 290 290 291 290 289 290 288 288 288 286 284 283 289 296 296 296 300 300 296 293 293 294 294 293 293 292 289 289 289 288 291 302 296 286 286 286 284 284 285 288
266 267 269 270 272 274 275 276 276 277 278 278 279 280 281 282 283 284 284 285 286 286 287 288 287 287 287 287 287 286 286 290 294 293 291 289 287 289 291 293 294 294 294 292 290 289 288 289 289 289 289 288 289 289 287 288 288 285 283 285 292 297 295 297 301 297 293 291 291 294 295 294 294 290 288 288 287 286 293 300 292 286 287 284 279 279 282 286
264 265 266 266 268 269 270 272 273 274 275 276 277 278 279 280 281 282 282 284 284 285 286 286 286 286 286 285 285 285 287 294 301 292 285 285 287 290 291 292 291 289 288 286 286 286 286 287 286 286 286 286 287 286 286 287 286 284 285 288 293 296 295 296 298 293 290 290 291 294 294 293 293 292 291 288 284 286 294 295 289 286 285 283 281 279 281 285
263 264 264 265 266 267 268 269 270 271 272 273 274 275 276 277 278 279 280 282 282 283 284 284 285 285 286 285 284 284 284 290 297 287 281 282 285 287 287 287 286 285 283 282 283 283 285 285 284 285 285 285 285 285 286 286 285 285 287 290 294 294 293 295 295 292 291 291 292 293 291 291 293 294 292 285 282 286 292 291 288 284 283 282 282 281 282 284
266 266 267 267 268 269 269 269 270 271 271 272 272 274 275 275 277 278 279 280 281 281 281 282 283 283 285 284 284 283 280 285 289 281 281 282 282 283 284 285 285 282 282 282 282 283 283 283 284 285 284 284 284 285 286 286 286 285 287 292 293 290 290 292 293 291 292 292 293 292 290 292 295 295 290 282 283 289 291 291 288 283 280 279 279 280 281 281
269 269 269 270 270 270 271 272 273 273 273 274 274 275 276 277 278 279 280 280 280 280 280 281 281 282 283 282 283 280 281 291 285 276 279 280 280 282 283 284 283 282 283 284 283 282 281 282 283 283 281 281 283 284 286 287 286 285 288 292 290 287 289 291 291 291 292 293 294 292 292 295 295 293 286 281 287 294 295 294 288 282 277 276 278 279 279 278
268 269 269 270 270 270 271 272 272 273 274 274 274 275 276 277 278 279 280 280 280 280 281 282 281 281 280 280 282 279 284 296 281 274 275 276 279 280 280 280 280 282 283 283 282 280 280 281 280 279 279 280 281 284 285 285 285 287 290 289 287 288 290 291 290 291 291 293 295 292 293 295 293 289 283 283 293 299 297 291 284 279 276 276 278 278 277 276
266 266 267 268 269 270 271 271 272 273 273 274 274 275 275 276 277 278 278 279 279 280 280 281 281 280 279 279 277 276 285 290 277 275 273 273 277 278 279 279 279 280 280 280 280 280 279 278 278 278 278 280 281 283 285 285 286 289 289 287 287 289 290 290 290 292 293 296 295 293 293 293 289 283 281 289 299 299 294 286 282 280 277 277 277 276 276 275
266 266 267 268 269 269 271 272 273 273 274 274 275 275 276 276 277 277 278 278 279 279 279 280 280 279 279 277 274 277 285 282 276 276 273 273 273 273 276 277 277 277 276 277 277 277 277 277 278 278 278 280 282 284 286 286 287 287 287 286 287 288 290 290 291 295 297 298 297 295 294 290 285 280 283 294 299 296 292 287 283 281 279 278 276 275 273 272
267 267 267 268 269 269 271 272 272 273 273 274 274 274 275 275 275 276 276 276 277 277 277 277 278 277 276 274 273 279 283 280 279 279 277 276 273 272 273 273 274 275 275 275 275 276 276 276 277 275 276 278 282 285 286 286 285 285 286 286 287 289 289 290 293 299 301 299 298 298 294 288 284 282 288 295 295 292 290 288 286 282 280 278 275 273 271 270
267 267 268 268 269 269 270 271 272 272 272 273 273 273 273 274 275 275 275 275 275 275 275 274 275 274 274 272 273 277 277 278 280 281 281 280 278 275 273 273 273 273 274 274 274 275 275 276 275 274 275 278 282 284 285 285 283 283 287 286 287 290 289 294 301 305 302 296 298 297 289 287 288 287 291 295 294 293 289 289 287 283 279 276 274 272 271 271
268 268 268 269 270 270 271 272 272 273 273 274 274 275 275 276 276 276 277 277 277 277 276 275 275 274 273 273 275 275 275 277 279 281 283 282 280 278 275 274 274 274 275 275 275 276 276 276 275 274 275 278 283 285 283 281 280 285 287 285 288 286 288 300 305 302 300 295 296 295 287 288 291 290 292 295 294 293 290 289 286 282 280 278 276 275 273 273
268 268 269 269 270 270 271 272 273 274 275 275 276 277 278 278 279 280 280 281 282 281 281 280 280 279 277 278 278 278 279 279 279 281 281 281 281 279 277 275 274 274 274 274 275 275 275 275 274 275 277 280 283 282 279 277 280 286 284 283 287 287 292 302 297 294 297 294 294 295 290 291 293 291 292 293 293 292 291 288 284 281 280 280 279 279 279 279
268 269 270 270 271 272 273 273 275 276 277 278 279 280 281 282 283 283 284 284 284 284 284 283 283 282 281 282 281 280 280 279 279 280 279 279 279 277 276 273 271 271 271 272 272 273 274 274 275 276 277 279 279 279 277 276 279 283 282 281 286 291 297 301 295 292 294 293 296 296 292 292 293 293 292 291 291 291 290 286 283 281 280 280 281 283 284 284
270 270 271 272 273 274 274 275 276 278 279 280 282 283 285 285 286 286 286 286 286 286 286 285 284 283 283 284 283 280 279 279 279 279 279 279 277 275 273 270 271 271 272 272 272 273 273 274 276 275 275 276 276 275 271 269 276 284 288 286 289 294 295 296 296 294 293 295 297 296 293 292 294 296 294 291 289 289 288 286 285 283 284 285 286 286 286 287
272 272 272 273 273 274 274 275 276 278 280 282 283 284 285 286 286 287 286 286 286 287 287 285 285 284 283 284 282 278 278 278 278 277 277 277 276 274 272 272 273 273 273 273 273 273 273 274 274 271 271 272 273 272 266 270 285 289 289 288 290 292 292 293 294 296 299 297 296 294 293 294 296 298 296 291 288 286 286 286 287 288 289 289 289 288 289 289
274 274 274 274 274 274 274 275 276 278 280 282 283 284 285 286 286 286 286 286 286 286 286 285 284 280 277 278 278 276 275 274 274 274 274 274 273 273 273 273 272 271 272 273 274 274 274 274 269 265 269 274 278 280 278 285 292 287 284 286 287 289 290 292 294 300 303 299 295 293 293 295 298 298 295 293 291 290 289 289 290 291 292 291 291 292 292 290
274 274 274 275 275 274 275 275 276 277 279 281 284 285 286 286 287 286 284 283 285 285 284 284 284 281 280 281 279 277 275 273 271 271 271 271 271 271 271 270 270 271 270 272 274 274 274 272 266 267 275 282 286 287 286 287 285 283 285 286 288 289 289 293 298 302 304 298 294 295 296 297 298 296 295 296 296 295 294 294 293 292 292 293 295 296 294 290
271 272 272 273 273 274 275 275 277 278 279 281 283 285 285 286 287 286 284 282 281 282 282 282 282 281 283 284 281 279 276 272 270 269 268 268 268 269 269 269 270 270 271 272 273 273 272 268 268 276 284 287 286 283 282 281 281 283 285 286 287 288 291 296 300 302 303 297 295 299 299 298 298 297 298 300 301 300 297 296 295 295 300 302 300 295 293 291
268 268 268 269 270 272 274 276 278 279 280 281 282 283 284 285 286 287 288 286 282 282 283 283 282 282 285 283 280 278 273 269 267 264 262 262 262 264 266 268 269 271 272 273 273 274 273 272 276 285 288 285 283 282 281 281 282 282 283 285 284 287 295 298 301 306 305 298 299 303 301 301 303 302 304 304 302 300 295 300 308 311 311 307 300 296 294 288
264 265 266 267 268 270 272 274 276 278 280 281 282 283 284 285 287 288 291 292 291 289 288 288 287 286 285 280 276 272 268 268 266 260 258 257 258 260 263 267 270 273 274 275 276 277 275 278 284 288 286 283 282 280 280 280 281 280 281 282 282 289 296 295 300 309 305 300 303 303 303 307 312 317 316 299 201 129 308 312 315 316 314 306 301 298 290 276
262 265 267 268 270 271 272 274 275 277 280 283 284 286 287 289 292 292 295 297 299 301 298 294 293 290 283 273 271 267 265 268 267 263 259 257 259 261 263 268 271 273 276 278 279 278 276 280 286 287 283 282 280 278 278 279 280 280 280 280 284 294 298 295 302 307 304 304 305 308 311 312 333 39 38 147 158 307 312 319 324 322 317 303 292 286 269 255
261 264 266 269 273 275 276 277 279 281 284 289 291 293 294 295 297 299 303 304 306 312 307 293 290 286 265 247 257 276 288 283 273 269 262 259 261 262 263 266 269 273 276 279 280 279 280 285 289 288 284 281 278 278 281 279 278 278 281 286 291 297 299 299 304 306 306 305 304 315 322 304 206 278 304 298 301 309 321 338 347 309 305 272 260 261 248 238
260 265 268 270 273 277 278 280 284 288 291 294 296 297 296 297 301 304 309 309 311 319 310 260 233 181 133 56 68 52 344 331 304 298 284 275 271 267 268 267 269 273 278 281 281 281 286 293 294 289 287 283 274 278 287 283 277 276 283 293 293 293 297 299 302 302 298 290 297 308 310 283 278 282 300 310 314 326 348 11 37 316 265 244 251 247 226 226
262 266 268 271 274 276 278 280 285 288 290 290 291 293 293 297 305 311 317 314 313 332 117 157 152 173 232 311 314 311 316 306 295 292 284 280 276 272 272 273 276 277 280 283 278 281 292 298 294 290 289 282 275 285 297 291 278 276 284 293 289 291 295 296 297 295 292 295 300 305 291 282 286 289 304 315 333 359 28 92 66 41 23 259 188 166 176 225
262 262 263 266 268 269 272 276 281 283 287 288 289 291 290 294 303 309 317 313 297 18 139 168 179 234 250 275 285 294 299 294 291 284 271 265 264 268 274 279 282 281 282 280 273 281 293 292 290 289 285 284 288 296 299 286 275 276 285 289 285 288 290 290 293 291 295 302 299 298 301 277 280 291 311 332 16 32 100 104 65 40 45 52 75 164 211 228
260 261 261 262 262 263 266 271 276 281 286 289 291 293 293 298 304 304 303 275 261 289 216 222 255 267 258 265 273 276 273 273 274 269 266 263 262 267 273 278 280 280 282 279 278 286 293 290 289 286 284 289 295 296 287 275 275 279 285 286 284 286 286 287 290 289 295 295 266 252 269 272 284 297 317 9 64 125 123 110 68 29 15 357 219 225 240 253
260 260 262 264 264 264 266 270 277 282 286 287 289 291 293 298 299 292 267 243 257 282 269 264 267 262 260 259 254 248 246 256 263 264 267 270 271 271 273 275 275 278 281 281 282 287 291 289 286 285 287 292 292 287 282 277 279 282 282 283 285 287 289 289 287 289 291 281 262 271 271 254 276 333 86 114 139 148 133 125 96 357 342 298 236 264 269 266
264 261 260 263 264 265 267 272 278 282 284 284 286 287 289 290 281 256 233 257 278 287 277 270 258 240 235 231 232 236 238 247 257 261 264 268 269 268 272 278 279 283 286 285 286 289 288 286 284 286 288 289 289 286 283 280 281 281 278 280 286 292 297 291 280 277 267 267 282 308 282 236 238 246 109 126 136 158 187 257 263 284 298 289 289 293 288 278
265 261 259 258 259 264 269 274 278 280 281 281 284 284 284 283 263 236 240 269 284 279 263 247 214 201 206 217 224 225 228 244 261 266 266 264 262 262 267 275 282 287 288 288 289 288 284 281 281 282 282 283 284 281 278 278 277 274 271 273 280 308 309 271 228 222 246 262 276 284 283 239 244 253 251 258 271 261 268 284 279 265 264 284 297 293 282 275
263 262 261 259 258 261 267 273 277 278 277 278 279 278 275 269 252 239 246 259 255 245 255 247 237 246 254 251 248 252 261 269 272 271 268 265 264 263 263 267 271 275 278 282 284 284 284 283 279 276 277 279 276 272 274 275 271 267 269 266 247 233 290 265 262 287 263 266 271 274 273 258 265 272 273 279 273 260 262 273 270 251 258 281 289 281 270 269
265 265 267 268 266 265 268 271 274 275 275 275 274 272 261 246 248 254 257 258 257 263 268 269 269 270 270 269 269 272 275 276 274 272 270 268 266 266 266 267 267 268 272 275 276 275 276 279 279 276 275 277 274 272 273 272 271 275 277 269 247 239 245 254 258 255 276 283 272 261 250 255 275 283 287 299 242 223 241 261 261 257 262 273 277 268 261 269
271 271 272 274 273 274 275 273 272 271 270 270 268 261 249 245 253 261 265 268 268 269 270 271 273 272 273 275 277 279 278 272 269 268 265 263 263 266 269 270 269 265 264 262 265 268 266 271 277 278 274 276 277 273 268 267 271 275 271 253 242 249 251 250 251 251 268 289 268 246 248 264 274 274 276 281 266 254 262 270 271 266 264 272 275 268 266 269
275 275 274 274 275 275 273 269 267 265 263 262 257 251 250 254 261 265 268 272 271 266 266 269 271 272 276 279 281 281 274 266 264 262 259 259 261 263 265 267 268 263 258 257 261 267 266 268 274 277 276 272 270 265 261 263 265 261 251 245 253 262 255 249 253 254 258 274 265 255 262 274 280 284 287 280 257 259 261 262 269 270 274 285 289 287 279 268
273 273 273 273 271 268 265 264 263 260 257 253 248 250 256 261 264 264 264 266 265 264 265 266 268 269 270 273 276 276 270 268 266 261 263 267 266 264 262 261 261 259 258 259 260 260 261 266 270 274 277 270 265 267 264 260 257 248 244 255 263 262 248 243 248 250 236 246 262 255 261 273 278 285 292 260 191 231 246 255 276 286 289 291 290 286 273 262
271 271 271 270 267 263 261 259 256 255 252 246 245 252 258 261 263 263 263 262 262 262 261 261 261 262 263 265 269 271 272 272 265 260 266 269 267 269 271 266 260 258 257 258 259 257 259 268 270 269 272 272 271 271 264 253 249 243 245 253 253 249 243 233 223 225 236 243 247 233 248 263 264 266 274 263 248 257 259 264 273 277 279 281 280 274 264 259
266 266 266 266 263 259 257 254 250 247 242 240 244 251 256 259 261 261 261 260 260 260 260 260 259 261 263 264 265 267 267 265 260 260 264 261 256 260 260 254 252 253 251 256 264 264 263 268 268 265 268 271 268 263 258 254 253 248 246 246 243 246 252 238 227 230 235 248 256 234 233 251 261 266 270 267 268 271 270 270 268 268 273 276 274 270 265 267
263 263 262 262 260 255 254 250 243 237 235 241 248 252 255 259 261 262 260 259 259 259 259 260 260 261 263 264 266 267 267 265 263 262 259 254 254 258 253 249 256 261 261 264 270 274 275 269 263 264 267 267 261 256 257 258 256 246 244 247 249 253 259 258 254 249 245 251 265 254 239 241 254 263 266 268 275 279 280 282 281 281 283 280 277 276 275 278
261 260 260 259 257 252 247 239 236 236 237 243 250 252 254 258 261 263 263 262 260 258 257 259 259 259 262 265 267 268 268 268 267 265 263 261 261 263 262 260 263 266 267 268 268 272 276 270 263 262 262 261 258 259 262 258 253 253 256 257 259 262 264 266 262 252 246 240 236 251 259 246 252 262 267 270 275 278 278 282 285 288 291 293 294 294 293 293
258 257 257 256 253 250 242 236 239 240 239 244 250 252 255 258 261 263 263 262 261 259 259 260 259 259 261 263 264 265 266 268 268 267 267 267 265 263 264 267 269 270 271 272 270 268 269 269 268 266 264 264 264 265 268 268 267 268 269 267 265 264 262 261 262 260 252 245 242 249 253 247 252 260 263 265 269 272 272 275 282 292 297 299 300 298 297 296
256 254 255 252 249 246 239 236 238 238 240 247 252 253 254 256 259 259 259 258 258 257 258 259 260 261 261 262 263 263 266 269 271 270 270 271 270 268 268 270 272 274 272 271 269 268 265 262 266 269 270 270 270 269 271 273 274 271 267 266 261 257 256 254 257 265 264 257 256 255 254 249 250 252 252 254 261 268 275 284 292 298 300 300 301 299 299 298
254 253 252 249 246 242 237 237 239 240 245 249 250 251 251 252 254 255 256 257 256 257 258 258 260 260 260 262 263 263 265 267 270 271 268 267 267 268 271 274 276 277 274 268 266 267 263 257 263 273 276 273 272 272 272 273 269 258 252 251 246 247 250 251 259 268 266 255 255 254 257 255 247 247 252 262 276 283 288 293 296 298 299 300 301 301 301 301
247 246 245 244 241 238 238 242 244 246 248 249 249 250 250 250 251 253 254 257 257 258 259 259 260 260 260 261 262 263 262 261 263 267 268 268 269 270 273 275 275 272 268 265 265 269 273 272 275 278 273 269 273 272 274 279 278 270 264 259 253 252 257 266 279 282 276 270 264 259 271 270 263 266 273 280 286 291 294 295 296 297 298 299 300 300 301 301
240 239 240 240 237 237 240 243 245 245 244 244 245 248 248 248 251 253 254 256 258 258 259 259 260 260 260 260 261 262 261 261 262 265 268 271 271 271 270 268 266 263 262 268 273 277 280 279 276 274 271 271 275 275 276 279 281 281 279 276 273 270 270 278 283 271 269 281 279 275 280 279 277 281 283 284 287 291 293 295 296 297 297 297 298 298 299 299
240 239 241 240 236 238 241 242 243 244 244 240 240 246 251 251 252 254 256 257 259 260 260 260 259 258 259 260 260 261 263 264 265 265 267 268 269 269 267 265 264 263 264 270 275 278 281 280 277 276 274 273 274 275 276 275 274 276 277 277 277 276 275 277 274 269 275 281 276 278 282 281 281 285 286 288 290 291 292 293 293 293 293 294 294 295 296 296
242 242 241 239 238 241 243 244 244 244 245 243 243 247 252 254 255 256 257 258 258 258 258 258 257 257 258 261 260 259 260 261 261 263 265 266 267 266 264 263 264 266 270 273 276 279 281 279 279 278 276 275 275 274 273 273 275 275 275 276 277 276 276 276 274 277 279 273 272 281 284 282 285 287 288 289 288 288 288 287 287 287 287 288 289 290 291 292
245 245 244 242 243 246 247 250 250 247 246 246 248 250 252 253 255 255 255 257 257 256 255 256 257 258 258 258 256 252 254 256 258 260 261 262 263 263 265 268 271 273 275 278 280 281 279 278 280 277 271 272 274 275 273 272 273 272 270 272 274 274 275 276 276 278 277 272 275 281 281 282 286 287 285 285 284 283 282 282 281 282 282 283 285 287 289 290
246 247 247 245 246 247 247 249 250 249 247 244 246 250 252 253 254 251 248 248 249 248 247 247 250 249 245 241 238 239 244 248 250 253 256 258 263 266 270 275 277 278 279 280 281 278 269 268 269 265 265 267 268 271 271 268 271 275 275 272 270 271 273 275 276 279 279 278 279 280 278 280 282 283 282 282 280 280 279 279 280 281 283 284 285 286 287 287
248 248 248 247 246 245 244 244 245 246 246 244 245 249 253 255 255 254 251 251 251 250 248 248 249 249 247 245 245 247 251 252 253 255 258 261 265 269 273 276 277 278 277 275 273 265 256 258 263 268 273 273 271 273 277 277 280 283 280 274 272 274 278 278 279 279 279 279 280 279 275 273 275 278 279 278 277 277 277 278 281 282 283 283 282 282 282 283
249 249 248 247 247 246 245 244 242 243 246 247 247 249 252 253 255 256 256 257 258 258 258 258 259 259 259 258 258 259 261 262 262 263 263 264 267 268 269 269 268 269 269 267 264 258 252 260 273 280 282 281 280 282 285 287 289 281 275 275 277 281 282 280 278 278 277 275 273 271 270 272 275 278 277 275 274 274 275 278 280 279 277 276 276 278 279 281
Height
3196 3196 3196 3196 3196 3196 3196 3196 3196 3196 3196 3196 3196 3196 3196 3196 3196 3196 3196 3195 3195 3195 3195 3194 3194 3194 3194 3193 3193 3192 3192 3192 3192 3191 3191 3191 3190 3190 3190 3189 3189 3189 3189 3188 3188 3188 3187 3187 3186 3186 3185 3185 3185 3184 3184 3183 3183 3182 3181 3179 3178 3179 3178 3178 3178 3177 3176 3176 3175 3174 3174 3172 3172 3172 3170 3169 3168 3169 3169 3170 3169 3167 3167 3166 3165 3164 3163 3163
3194 3194 3195 3195 3195 3195 3195 3195 3195 3195 3195 3195 3195 3195 3195 3195 3195 3194 3194 3194 3194 3194 3193 3193 3193 3192 3192 3192 3191 3191 3190 3190 3190 3190 3190 3189 3189 3188 3188 3188 3188 3187 3187 3187 3186 3186 3186 3185 3185 3184 3184 3184 3183 3183 3182 3182 3182 3180 3179 3177 3176 3177 3176 3176 3176 3176 3175 3173 3173 3172 3172 3170 3170 3169 3167 3166 3166 3166 3166 3168 3168 3165 3165 3165 3163 3162 3160 3161
3193 3193 3193 3193 3193 3193 3193 3194 3194 3193 3193 3193 3193 3193 3193 3193 3193 3193 3193 3193 3192 3192 3192 3192 3191 3191 3191 3190 3190 3189 3188 3189 3189 3189 3188 3188 3187 3186 3186 3186 3186 3186 3185 3185 3185 3184 3184 3183 3183 3183 3182 3182 3181 3181 3181 3180 3180 3178 3177 3174 3174 3175 3174 3174 3174 3174 3172 3171 3170 3170 3169 3168 3168 3167 3165 3163 3163 3163 3164 3166 3165 3163 3163 3163 3161 3159 3158 3158
3191 3191 3192 3192 3192 3192 3192 3192 3192 3192 3191 3191 3191 3191 3191 3191 3191 3191 3191 3191 3191 3191 3190 3190 3190 3189 3189 3188 3188 3187 3186 3187 3188 3187 3186 3186 3185 3185 3185 3185 3185 3184 3184 3183 3183 3182 3182 3182 3181 3181 3181 3180 3180 3179 3179 3179 3178 3176 3174 3173 3173 3173 3171 3171 3172 3171 3170 3169 3168 3168 3167 3165 3165 3165 3163 3161 3159 3159 3162 3163 3162 3161 3160 3160 3159 3157 3156 3155
3189 3189 3190 3190 3190 3190 3190 3190 3190 3190 3189 3189 3190 3189 3189 3189 3189 3189 3189 3189 3189 3189 3189 3188 3188 3188 3187 3187 3186 3185 3185 3186 3186 3186 3185 3184 3183 3183 3183 3183 3183 3182 3182 3181 3181 3180 3180 3180 3179 3179 3179 3178 3177 3177 3176 3177 3176 3173 3171 3171 3171 3171 3169 3168 3169 3168 3167 3167 3166 3166 3165 3163 3162 3162 3160 3158 3156 3157 3161 3161 3160 3159 3157 3156 3155 3155 3154 3153
3187 3187 3188 3188 3188 3188 3188 3188 3188 3188 3188 3188 3187 3187 3187 3187 3187 3187 3187 3187 3187 3187 3187 3186 3186 3186 3185 3185 3184 3183 3183 3185 3186 3184 3182 3182 3182 3182 3182 3181 3181 3181 3180 3179 3179 3178 3178 3178 3177 3177 3176 3176 3175 3175 3174 3174 3173 3170 3169 3169 3169 3168 3166 3166 3166 3164 3164 3164 3164 3164 3162 3161 3160 3159 3157 3153 3152 3156 3158 3159 3158 3156 3154 3153 3153 3152 3152 3151
3185 3185 3185 3186 3186 3186 3186 3186 3186 3186 3186 3185 3185 3185 3185 3185 3185 3185 3185 3185 3184 3184 3184 3184 3184 3184 3183 3183 3182 3181 3180 3183 3185 3182 3180 3180 3180 3180 3180 3179 3179 3178 3178 3177 3177 3177 3176 3175 3175 3175 3174 3173 3173 3172 3172 3171 3171 3168 3166 3167 3167 3165 3164 3164 3163 3161 3161 3161 3161 3160 3159 3159 3158 3156 3153 3147 3149 3154 3155 3156 3155 3153 3152 3150 3150 3150 3149 3149
3182 3183 3183 3183 3183 3183 3183 3183 3183 3183 3183 3183 3183 3183 3183 3183 3183 3183 3183 3182 3182 3182 3182 3182 3182 3182 3181 3180 3180 3178 3178 3181 3182 3179 3178 3178 3178 3178 3177 3177 3176 3176 3176 3175 3175 3174 3174 3174 3173 3173 3172 3171 3170 3170 3169 3168 3167 3165 3164 3165 3163 3162 3162 3162 3160 3158 3158 3157 3157 3156 3155 3157 3155 3153 3147 3143 3148 3152 3152 3152 3151 3150 3148 3147 3147 3147 3146 3146
3180 3180 3181 3181 3181 3181 3181 3181 3181 3181 3181 3181 3181 3181 3181 3181 3181 3181 3180 3180 3180 3180 3180 3180 3179 3179 3179 3179 3177 3175 3176 3180 3178 3177 3177 3176 3176 3176 3175 3175 3174 3173 3173 3173 3172 3172 3172 3171 3171 3170 3169 3169 3168 3167 3167 3166 3164 3162 3162 3161 3159 3158 3159 3158 3156 3155 3154 3154 3153 3151 3152 3153 3152 3149 3143 3141 3147 3149 3148 3148 3147 3146 3145 3144 3144 3143 3143 3142
3178 3178 3178 3179 3179 3179 3179 3179 3179 3179 3179 3179 3179 3179 3179 3179 3178 3178 3178 3178 3178 3178 3178 3177 3177 3177 3177 3177 3175 3172 3175 3177 3176 3176 3176 3175 3175 3174 3173 3172 3172 3171 3171 3170 3170 3169 3169 3168 3168 3168 3167 3166 3166 3165 3165 3163 3161 3160 3158 3157 3156 3155 3155 3154 3153 3152 3151 3151 3149 3146 3147 3148 3148 3145 3140 3141 3144 3145 3144 3144 3143 3143 3142 3141 3141 3140 3140 3139
3175 3176 3176 3176 3176 3176 3176 3176 3176 3176 3176 3176 3176 3176 3176 3176 3176 3176 3176 3175 3175 3175 3175 3175 3175 3175 3174 3174 3172 3171 3173 3174 3173 3173 3173 3173 3173 3172 3171 3170 3169 3169 3168 3168 3167 3167 3166 3166 3165 3165 3164 3163 3163 3163 3162 3160 3158 3156 3155 3152 3152 3152 3151 3151 3150 3150 3148 3146 3145 3142 3142 3143 3143 3140 3139 3141 3141 3139 3139 3139 3140 3139 3138 3138 3137 3137 3136 3135
3173 3173 3173 3173 3173 3174 3174 3174 3173 3173 3173 3174 3174 3174 3174 3173 3173 3173 3173 3173 3173 3173 3173 3172 3172 3172 3172 3172 3171 3170 3171 3170 3170 3170 3170 3170 3170 3169 3169 3167 3167 3166 3165 3165 3164 3164 3163 3163 3163 3162 3161 3160 3161 3161 3159 3157 3155 3153 3152 3149 3148 3149 3147 3147 3148 3148 3146 3142 3141 3139 3135 3136 3138 3136 3137 3139 3137 3135 3135 3135 3136 3135 3134 3134 3133 3133 3132 3132
3170 3170 3170 3171 3171 3171 3171 3171 3170 3170 3170 3170 3170 3171 3170 3170 3170 3170 3170 3170 3170 3170 3170 3170 3169 3169 3169 3169 3169 3169 3168 3167 3167 3167 3167 3167 3167 3167 3166 3165 3164 3163 3162 3162 3162 3161 3160 3160 3159 3159 3159 3158 3159 3158 3156 3154 3151 3151 3150 3145 3145 3145 3143 3145 3146 3145 3143 3139 3137 3136 3130 3129 3133 3134 3136 3135 3133 3132 3130 3130 3131 3131 3130 3129 3129 3129 3128 3129
3167 3167 3167 3167 3168 3168 3167 3167 3167 3167 3167 3167 3167 3167 3167 3167 3167 3167 3166 3166 3166 3166 3166 3166 3166 3166 3166 3166 3167 3167 3166 3165 3164 3164 3164 3164 3164 3164 3163 3162 3161 3160 3160 3159 3159 3158 3157 3156 3156 3155 3156 3156 3156 3155 3153 3149 3148 3149 3147 3142 3143 3141 3139 3143 3144 3141 3140 3135 3132 3131 3126 3124 3128 3132 3133 3131 3129 3128 3126 3126 3126 3125 3125 3124 3124 3124 3124 3125
3164 3164 3164 3164 3164 3164 3164 3164 3164 3163 3163 3163 3164 3164 3164 3164 3164 3163 3163 3163 3163 3163 3163 3163 3163 3162 3162 3163 3164 3164 3163 3163 3161 3161 3161 3160 3160 3160 3160 3159 3158 3158 3157 3156 3156 3155 3154 3153 3152 3153 3153 3154 3154 3152 3149 3146 3145 3148 3144 3139 3140 3137 3134 3139 3141 3140 3137 3131 3128 3127 3122 3119 3123 3128 3130 3128 3125 3123 3121 3121 3121 3121 3120 3119 3120 3120 3120 3122
3161 3161 3161 3161 3162 3161 3161 3161 3161 3160 3160 3160 3160 3160 3161 3161 3160 3160 3160 3160 3159 3159 3159 3159 3159 3159 3158 3159 3161 3160 3160 3159 3158 3158 3158 3157 3157 3156 3156 3155 3155 3155 3154 3153 3153 3152 3151 3150 3150 3150 3151 3152 3152 3149 3146 3144 3143 3144 3142 3137 3136 3135 3132 3132 3135 3138 3136 3128 3125 3124 3119 3115 3117 3122 3126 3125 3122 3119 3116 3116 3117 3117 3116 3116 3116 3116 3116 3117
3157 3158 3158 3158 3158 3158 3158 3158 3158 3157 3157 3157 3157 3157 3157 3157 3157 3157 3156 3156 3156 3156 3156 3155 3155 3155 3154 3155 3157 3157 3156 3155 3155 3155 3154 3154 3153 3153 3152 3152 3152 3152 3151 3151 3150 3149 3148 3147 3147 3147 3148 3149 3149 3148 3145 3142 3141 3141 3139 3135 3133 3133 3131 3129 3129 3133 3133 3126 3122 3119 3113 3110 3113 3117 3120 3121 3120 3115 3112 3111 3112 3112 3112 3112 3113 3112 3111 3111
3154 3154 3155 3155 3155 3155 3155 3155 3155 3155 3154 3154 3154 3153 3153 3153 3153 3153 3152 3152 3152 3152 3152 3151 3151 3151 3150 3151 3153 3153 3152 3152 3152 3152 3151 3151 3150 3149 3149 3148 3148 3148 3147 3147 3146 3146 3146 3145 3144 3144 3145 3146 3146 3145 3143 3140 3140 3139 3137 3134 3131 3129 3128 3127 3126 3128 3128 3123 3119 3115 3108 3105 3108 3111 3112 3115 3115 3112 3109 3109 3108 3108 3108 3108 3108 3108 3107 3107
3151 3151 3151 3152 3152 3152 3152 3152 3152 3152 3151 3151 3151 3150 3150 3150 3149 3149 3149 3148 3149 3149 3148 3147 3147 3147 3147 3148 3149 3149 3149 3149 3148 3148 3148 3147 3146 3145 3145 3144 3144 3144 3144 3143 3142 3143 3143 3141 3140 3140 3142 3143 3143 3143 3140 3138 3138 3136 3134 3132 3130 3127 3124 3125 3124 3125 3125 3117 3113 3112 3106 3104 3105 3105 3106 3108 3109 3108 3106 3106 3105 3104 3104 3103 3103 3103 3103 3102
3147 3148 3148 3148 3149 3149 3149 3149 3149 3149 3149 3148 3148 3147 3147 3146 3146 3145 3145 3145 3145 3145 3145 3144 3143 3142 3143 3144 3145 3145 3145 3145 3145 3145 3144 3143 3142 3141 3140 3139 3139 3139 3140 3140 3139 3139 3140 3137 3134 3136 3139 3141 3141 3140 3138 3136 3135 3133 3132 3130 3127 3124 3120 3121 3123 3123 3123 3112 3105 3107 3103 3100 3101 3100 3101 3103 3103 3103 3102 3101 3101 3100 3100 3099 3100 3099 3098 3098
3144 3144 3145 3145 3145 3145 3145 3146 3146 3146 3146 3146 3145 3145 3144 3143 3142 3140 3140 3141 3142 3141 3140 3140 3139 3137 3139 3139 3139 3140 3140 3140 3141 3141 3141 3139 3138 3137 3135 3134 3135 3135 3136 3137 3136 3135 3135 3131 3130 3135 3138 3138 3137 3136 3135 3133 3132 3131 3129 3126 3123 3122 3117 3118 3120 3121 3120 3110 3101 3103 3099 3095 3097 3096 3097 3098 3098 3099 3098 3097 3097 3097 3097 3097 3096 3095 3094 3094
3140 3141 3141 3142 3142 3142 3142 3142 3142 3142 3143 3143 3142 3142 3141 3140 3139 3137 3134 3134 3137 3138 3136 3136 3135 3133 3135 3134 3133 3135 3134 3134 3136 3136 3136 3135 3134 3133 3131 3130 3131 3131 3132 3133 3133 3132 3130 3127 3129 3134 3135 3134 3133 3132 3132 3130 3129 3128 3127 3124 3120 3119 3116 3113 3115 3117 3116 3108 3100 3099 3094 3090 3093 3092 3092 3093 3093 3095 3095 3095 3095 3095 3094 3093 3091 3090 3089 3089
3137 3138 3138 3138 3138 3139 3139 3139 3139 3139 3139 3139 3139 3139 3137 3136 3135 3134 3131 3127 3129 3133 3132 3130 3130 3129 3130 3129 3128 3129 3127 3128 3130 3130 3131 3131 3130 3130 3129 3127 3128 3128 3128 3129 3130 3129 3126 3125 3128 3131 3131 3130 3129 3129 3129 3127 3126 3124 3124 3122 3117 3118 3117 3111 3111 3113 3112 3107 3101 3097 3090 3086 3088 3087 3088 3090 3089 3092 3094 3093 3093 3091 3090 3088 3086 3085 3085 3084
3134 3135 3135 3136 3136 3136 3136 3136 3136 3136 3137 3136 3136 3135 3134 3133 3132 3130 3129 3124 3123 3127 3128 3126 3125 3124 3125 3124 3123 3124 3124 3125 3126 3126 3128 3127 3127 3128 3127 3126 3125 3124 3125 3126 3127 3125 3123 3124 3125 3127 3126 3126 3125 3125 3126 3124 3121 3119 3120 3119 3115 3116 3116 3111 3109 3108 3106 3105 3101 3096 3088 3084 3087 3085 3086 3090 3088 3090 3093 3091 3089 3088 3086 3084 3082 3081 3081 3081
3131 3132 3132 3133 3133 3133 3133 3133 3134 3134 3134 3134 3133 3132 3131 3131 3130 3128 3126 3123 3120 3122 3123 3122 3121 3121 3122 3122 3121 3122 3122 3123 3123 3123 3124 3124 3124 3125 3124 3124 3123 3122 3122 3123 3122 3120 3120 3122 3123 3122 3122 3123 3122 3121 3123 3121 3117 3115 3116 3117 3114 3113 3112 3110 3108 3105 3102 3101 3099 3098 3090 3081 3083 3084 3085 3090 3089 3087 3089 3088 3086 3085 3082 3081 3079 3079 3079 3078
3128 3129 3129 3130 3130 3131 3131 3131 3132 3131 3131 3131 3130 3130 3129 3129 3128 3127 3125 3121 3118 3118 3118 3118 3119 3120 3120 3120 3121 3121 3121 3121 3122 3122 3122 3122 3122 3122 3122 3122 3121 3120 3120 3120 3119 3116 3117 3120 3119 3119 3119 3119 3119 3118 3119 3119 3115 3112 3113 3114 3113 3110 3109 3107 3106 3104 3101 3098 3096 3100 3099 3083 3076 3080 3082 3084 3086 3084 3085 3085 3084 3082 3080 3079 3078 3077 3077 3077
3125 3126 3126 3127 3127 3128 3129 3129 3130 3129 3129 3129 3129 3128 3128 3128 3127 3126 3124 3121 3116 3115 3116 3116 3117 3118 3119 3119 3119 3120 3119 3120 3121 3121 3121 3121 3121 3121 3120 3119 3120 3118 3118 3118 3116 3114 3116 3117 3116 3116 3117 3116 3116 3116 3117 3117 3114 3109 3109 3111 3110 3108 3107 3104 3104 3102 3099 3096 3093 3095 3100 3088 3073 3074 3077 3079 3082 3082 3082 3083 3082 3081 3079 3078 3078 3077 3076 3076
3122 3123 3123 3124 3124 3125 3126 3127 3127 3127 3127 3127 3127 3127 3127 3127 3126 3125 3126 3123 3116 3113 3115 3115 3116 3117 3118 3118 3118 3118 3118 3118 3119 3119 3119 3119 3119 3119 3118 3117 3117 3116 3116 3115 3113 3112 3113 3113 3113 3113 3114 3113 3113 3113 3114 3114 3112 3108 3107 3108 3107 3106 3105 3102 3101 3100 3097 3096 3092 3090 3096 3091 3074 3071 3076 3076 3078 3080 3080 3080 3080 3080 3079 3078 3077 3076 3075 3074
3120 3120 3121 3121 3121 3122 3123 3123 3124 3124 3124 3124 3125 3125 3124 3125 3124 3124 3126 3123 3114 3111 3114 3114 3115 3116 3116 3116 3116 3116 3117 3117 3117 3117 3117 3117 3117 3117 3116 3115 3115 3113 3113 3112 3110 3110 3111 3110 3110 3109 3109 3109 3109 3110 3110 3111 3109 3107 3106 3105 3105 3104 3102 3101 3099 3098 3098 3094 3089 3088 3093 3089 3075 3070 3075 3075 3075 3077 3077 3078 3079 3079 3079 3077 3075 3074 3073 3072
3117 3117 3118 3118 3119 3120 3120 3120 3121 3121 3122 3122 3122 3122 3122 3122 3122 3123 3123 3117 3111 3110 3112 3112 3113 3114 3113 3114 3114 3114 3115 3115 3115 3116 3115 3115 3115 3115 3115 3114 3113 3111 3110 3109 3108 3108 3108 3107 3106 3106 3107 3107 3107 3107 3107 3107 3106 3106 3105 3103 3103 3101 3099 3099 3097 3097 3098 3091 3085 3085 3088 3089 3079 3071 3073 3074 3074 3076 3075 3075 3078 3078 3077 3075 3074 3073 3072 3070
3114 3114 3115 3115 3116 3117 3117 3118 3118 3119 3119 3119 3119 3119 3119 3119 3120 3120 3115 3109 3109 3110 3109 3109 3110 3110 3110 3111 3111 3112 3112 3113 3113 3114 3114 3114 3113 3113 3113 3112 3111 3110 3108 3107 3106 3106 3105 3104 3104 3104 3105 3105 3105 3104 3104 3104 3104 3103 3103 3101 3101 3100 3098 3097 3095 3097 3096 3087 3083 3084 3085 3087 3079 3071 3073 3074 3075 3076 3074 3074 3076 3076 3074 3072 3071 3071 3069 3067
3111 3111 3111 3112 3113 3113 3114 3114 3115 3116 3116 3116 3117 3116 3117 3117 3114 3110 3106 3107 3110 3107 3106 3107 3107 3108 3109 3108 3109 3109 3110 3111 3111 3112 3112 3112 3111 3111 3111 3110 3110 3108 3105 3103 3103 3102 3100 3101 3101 3101 3102 3103 3102 3101 3101 3101 3101 3101 3100 3101 3102 3101 3099 3096 3093 3094 3091 3084 3082 3083 3085 3082 3072 3069 3073 3074 3075 3075 3073 3073 3073 3071 3070 3068 3067 3066 3065 3064
3107 3107 3108 3108 3109 3110 3110 3111 3112 3113 3113 3114 3114 3113 3115 3114 3106 3101 3103 3107 3108 3105 3105 3106 3106 3106 3106 3106 3106 3107 3107 3108 3109 3109 3109 3108 3108 3107 3108 3108 3108 3106 3103 3101 3100 3098 3095 3094 3096 3097 3098 3099 3098 3098 3097 3097 3097 3097 3097 3099 3100 3101 3100 3096 3093 3091 3087 3082 3081 3082 3084 3076 3066 3067 3069 3069 3071 3071 3070 3070 3068 3066 3066 3064 3063 3063 3063 3062
3103 3103 3104 3104 3105 3106 3107 3107 3108 3109 3110 3111 3111 3111 3111 3107 3099 3097 3101 3103 3103 3104 3104 3104 3104 3104 3103 3102 3103 3103 3104 3104 3104 3105 3105 3104 3103 3102 3103 3104 3104 3103 3102 3100 3097 3095 3093 3089 3089 3092 3094 3094 3094 3094 3095 3094 3093 3093 3094 3095 3094 3094 3095 3092 3091 3089 3083 3080 3080 3081 3080 3070 3064 3065 3066 3066 3068 3067 3067 3066 3064 3064 3064 3062 3061 3061 3060 3060
3098 3099 3099 3100 3101 3102 3103 3103 3103 3105 3106 3107 3108 3108 3104 3097 3094 3096 3097 3098 3099 3100 3100 3100 3100 3099 3098 3097 3098 3098 3100 3099 3099 3100 3100 3099 3099 3098 3098 3099 3100 3100 3100 3098 3095 3093 3091 3086 3085 3088 3089 3090 3090 3091 3092 3091 3090 3089 3089 3090 3088 3088 3089 3087 3085 3084 3082 3080 3077 3076 3072 3064 3062 3062 3063 3066 3066 3064 3064 3062 3061 3062 3061 3060 3059 3058 3058 3057
3093 3094 3095 3095 3097 3098 3099 3099 3099 3101 3102 3103 3103 3100 3093 3090 3092 3094 3094 3095 3096 3096 3097 3097 3097 3096 3094 3093 3093 3093 3094 3095 3095 3096 3095 3095 3095 3094 3094 3094 3095 3096 3096 3095 3093 3091 3088 3083 3083 3084 3084 3086 3087 3087 3088 3087 3086 3086 3085 3084 3083 3084 3085 3083 3081 3080 3082 3079 3073 3070 3065 3061 3060 3058 3057 3061 3060 3058 3060 3059 3058 3059 3058 3058 3057 3056 3056 3055
3089 3089 3090 3091 3092 3093 3093 3094 3095 3096 3096 3098 3096 3090 3086 3087 3090 3091 3091 3092 3092 3093 3094 3094 3093 3093 3091 3090 3090 3090 3091 3092 3092 3093 3093 3093 3091 3090 3090 3091 3091 3092 3092 3091 3090 3089 3085 3080 3080 3081 3081 3082 3083 3083 3083 3082 3082 3082 3081 3080 3081 3081 3081 3080 3080 3079 3080 3076 3069 3066 3063 3060 3061 3057 3054 3057 3055 3054 3056 3056 3056 3056 3055 3055 3054 3054 3054 3052
3084 3084 3084 3086 3087 3087 3088 3089 3089 3090 3091 3092 3088 3083 3083 3084 3084 3086 3087 3088 3089 3089 3090 3091 3091 3089 3088 3088 3087 3087 3088 3089 3089 3090 3090 3090 3088 3087 3087 3088 3088 3088 3088 3088 3086 3086 3084 3080 3078 3079 3078 3078 3080 3080 3077 3077 3078 3078 3078 3078 3079 3078 3076 3077 3078 3076 3076 3072 3066 3063 3061 3059 3059 3056 3053 3053 3053 3052 3052 3053 3053 3053 3053 3053 3052 3052 3051 3049
3078 3078 3078 3080 3081 3081 3082 3083 3084 3085 3085 3083 3080 3078 3078 3078 3079 3082 3082 3083 3085 3086 3086 3086 3087 3086 3085 3085 3084 3085 3086 3086 3087 3087 3088 3087 3085 3084 3084 3084 3084 3084 3084 3085 3084 3083 3083 3080 3076 3076 3076 3074 3075 3076 3073 3073 3075 3076 3075 3075 3075 3075 3074 3074 3073 3071 3070 3066 3061 3060 3057 3055 3055 3054 3051 3049 3048 3048 3048 3049 3050 3049 3049 3049 3049 3048 3047 3046
3072 3072 3072 3074 3075 3075 3077 3078 3078 3078 3076 3074 3074 3074 3073 3074 3076 3077 3078 3079 3081 3082 3082 3082 3083 3082 3081 3081 3081 3081 3082 3082 3083 3084 3084 3084 3083 3082 3082 3082 3082 3082 3081 3082 3081 3080 3080 3078 3074 3074 3074 3072 3070 3071 3070 3071 3072 3073 3073 3072 3073 3072 3072 3070 3067 3066 3066 3062 3059 3058 3053 3050 3053 3052 3048 3046 3044 3044 3044 3044 3044 3044 3044 3044 3043 3043 3042 3042
3067 3066 3066 3068 3069 3070 3072 3071 3071 3071 3069 3069 3069 3069 3070 3071 3072 3072 3073 3075 3076 3077 3078 3078 3079 3078 3077 3077 3077 3077 3078 3077 3078 3079 3079 3079 3080 3079 3079 3079 3079 3079 3078 3078 3079 3078 3077 3074 3071 3070 3070 3068 3067 3067 3068 3069 3069 3069 3069 3070 3070 3070 3070 3067 3061 3060 3060 3056 3055 3054 3048 3046 3050 3050 3046 3043 3041 3041 3041 3039 3039 3039 3038 3038 3038 3038 3038 3038
3061 3060 3061 3064 3064 3065 3066 3065 3065 3066 3065 3065 3065 3066 3067 3068 3068 3069 3069 3070 3072 3073 3074 3074 3074 3074 3073 3073 3074 3074 3074 3074 3074 3075 3074 3074 3076 3076 3075 3075 3075 3076 3076 3075 3075 3075 3074 3071 3068 3066 3065 3064 3064 3064 3064 3065 3065 3065 3065 3066 3067 3067 3067 3064 3057 3055 3055 3050 3049 3050 3044 3041 3046 3046 3042 3039 3038 3037 3037 3036 3035 3034 3033 3033 3032 3032 3032 3032
3056 3056 3057 3059 3059 3061 3061 3060 3061 3061 3059 3060 3061 3063 3064 3064 3065 3065 3065 3067 3068 3069 3069 3069 3068 3069 3069 3070 3070 3071 3071 3070 3069 3070 3070 3070 3071 3071 3071 3071 3072 3072 3072 3070 3070 3070 3069 3067 3064 3061 3061 3060 3060 3060 3059 3059 3060 3060 3060 3061 3062 3061 3061 3059 3054 3053 3051 3046 3047 3047 3039 3037 3041 3041 3038 3036 3035 3034 3033 3033 3032 3030 3029 3028 3027 3026 3026 3026
3052 3052 3053 3054 3055 3056 3055 3054 3055 3055 3055 3057 3058 3059 3061 3061 3061 3061 3061 3062 3064 3064 3064 3064 3064 3065 3065 3066 3066 3067 3067 3067 3066 3065 3066 3066 3066 3067 3067 3068 3068 3068 3068 3067 3066 3066 3064 3063 3062 3060 3058 3057 3056 3056 3055 3055 3056 3056 3056 3057 3056 3055 3056 3053 3050 3050 3046 3043 3044 3042 3035 3034 3038 3036 3034 3033 3032 3031 3030 3029 3029 3027 3025 3024 3022 3021 3020 3019
3047 3047 3048 3049 3050 3050 3049 3049 3051 3052 3053 3054 3054 3055 3056 3056 3056 3057 3057 3058 3058 3059 3059 3059 3060 3061 3061 3062 3062 3062 3063 3064 3063 3062 3062 3062 3063 3063 3064 3064 3064 3064 3064 3063 3063 3062 3061 3060 3060 3058 3057 3055 3054 3053 3053 3053 3053 3053 3053 3054 3053 3053 3052 3050 3048 3047 3043 3040 3040 3039 3034 3033 3035 3034 3033 3032 3029 3027 3026 3025 3025 3023 3021 3020 3018 3016 3014 3012
3042 3042 3043 3044 3045 3045 3045 3046 3047 3048 3049 3050 3050 3051 3051 3051 3052 3053 3053 3053 3054 3054 3055 3055 3056 3057 3057 3057 3058 3058 3059 3060 3060 3059 3058 3058 3059 3060 3060 3060 3060 3060 3060 3059 3058 3058 3057 3056 3056 3055 3054 3053 3052 3051 3051 3051 3050 3049 3049 3049 3049 3049 3048 3047 3045 3043 3041 3038 3036 3035 3033 3030 3030 3031 3031 3029 3027 3024 3022 3021 3020 3018 3016 3014 3013 3011 3009 3008
3038 3038 3039 3040 3040 3040 3040 3041 3042 3043 3045 3046 3046 3046 3046 3047 3048 3049 3049 3049 3049 3050 3051 3051 3051 3052 3052 3053 3054 3054 3054 3055 3055 3055 3054 3055 3055 3055 3056 3056 3056 3056 3056 3055 3054 3054 3053 3051 3050 3050 3049 3049 3048 3047 3047 3046 3045 3045 3045 3043 3043 3043 3042 3042 3039 3038 3039 3036 3030 3030 3031 3027 3025 3028 3027 3024 3023 3021 3019 3017 3016 3015 3012 3010 3008 3007 3005 3004
3034 3034 3035 3036 3036 3035 3036 3037 3038 3039 3040 3041 3041 3042 3042 3043 3044 3044 3045 3045 3045 3046 3046 3046 3047 3048 3048 3049 3050 3050 3050 3051 3051 3051 3051 3051 3051 3051 3051 3051 3051 3051 3051 3051 3050 3050 3049 3046 3045 3046 3045 3044 3043 3043 3042 3041 3040 3041 3040 3038 3037 3037 3035 3035 3033 3033 3035 3031 3025 3026 3026 3021 3020 3023 3022 3019 3018 3016 3015 3014 3012 3011 3009 3007 3005 3003 3002 3001
3029 3030 3031 3032 3032 3032 3033 3034 3035 3036 3036 3037 3037 3038 3038 3039 3040 3040 3041 3041 3041 3042 3042 3042 3043 3044 3045 3046 3046 3046 3047 3047 3047 3047 3047 3047 3047 3047 3046 3046 3047 3047 3046 3046 3045 3046 3045 3042 3041 3041 3039 3039 3039 3038 3037 3038 3037 3035 3035 3034 3033 3031 3029 3029 3028 3028 3029 3025 3022 3022 3019 3015 3015 3016 3014 3013 3012 3011 3010 3009 3008 3007 3006 3004 3002 3000 2998 2997
3025 3026 3027 3028 3028 3029 3030 3031 3032 3032 3033 3033 3033 3033 3034 3035 3036 3037 3037 3037 3037 3038 3039 3039 3039 3040 3041 3042 3042 3042 3042 3043 3043 3044 3044 3043 3043 3043 3042 3042 3042 3042 3042 3042 3042 3042 3041 3038 3037 3037 3035 3034 3034 3034 3034 3034 3032 3030 3029 3029 3027 3025 3024 3024 3023 3023 3022 3019 3017 3016 3013 3009 3009 3009 3007 3007 3007 3006 3005 3004 3003 3002 3001 3000 2998 2997 2995 2993
3022 3023 3024 3024 3025 3026 3027 3027 3028 3028 3029 3029 3029 3029 3030 3030 3031 3032 3032 3033 3033 3034 3035 3035 3035 3036 3037 3038 3038 3037 3038 3040 3040 3040 3040 3039 3039 3039 3039 3038 3038 3038 3038 3038 3038 3038 3037 3034 3034 3035 3032 3029 3030 3031 3029 3029 3027 3024 3022 3020 3019 3019 3019 3019 3018 3018 3017 3013 3011 3010 3007 3004 3004 3003 3003 3002 3001 3001 3000 2999 2999 2998 2997 2995 2994 2993 2992 2990
3018 3018 3020 3020 3021 3022 3023 3023 3024 3024 3024 3025 3026 3026 3026 3026 3026 3027 3028 3028 3028 3029 3029 3030 3031 3032 3032 3032 3033 3033 3034 3034 3034 3034 3035 3034 3034 3034 3035 3035 3035 3034 3034 3034 3034 3034 3034 3031 3030 3032 3028 3024 3026 3026 3024 3026 3024 3016 3012 3012 3013 3014 3013 3012 3012 3012 3011 3008 3006 3003 3001 3000 3000 3000 2999 2998 2997 2996 2996 2996 2996 2995 2993 2991 2990 2989 2989 2987